STARLINK-5710 (55616 NORAD) Tracking and Keplerian Element Data

This shows tracking and keplerian element data for the satellite.

Feedback or suggestion? Click here.




ElementValue
Catalog55616
NameSTARLINK-5710
Epoch Orbit660
Epoch Day85.25001157
Epoch Year2023
RAAN103.8382
Inclination42.998
Eccentricity0.0001363
Argument of Perigee272.0921
Mean Anonmoly103.4658
Mean Motion15.48931574
Decay Rate-0.00056136
L11 55616U 23020AZ 23085.25001157 -.00056136 00000+0 -10156-2 0 9996
L22 55616 42.9980 103.8382 0001363 272.0921 103.4658 15.48931574 6604



Live tracking and technical data element details for STARLINK-5710 (NORAD 55616). STARLINK-5710 can be tracked NOW for your location showing map with azimuth and elevation plus other details from your city location.







IsCatalogInMostPopularTable: catalog: 55616, numindb: 4
Update: records affected: 1



GetName: 55616 STARLINK-5710

Hit Count: updated at: Tue, 28 Mar 2023 03:27:38 GMT